User: anonymous   Login
Location: Aiyekoto
(8.4333°N, 4.3667°E)
Time: 03:58:49
(UTC+00:00)
Language:

H-2A R/B - Orbit

View from above orbital plane
View from above orbital plane
View from above satellite
View from above satellite

Ground track
Ground track

The orbit data is extracted from the following two-line orbital elements,

1 38341U 12025E   21138.93238469  .00000171  00000-0  27584-4 0  9997
2 38341  98.5278 322.4010 0054356 233.5863 126.0330 14.84219010487122
Epoch (UTC): 18 May 2021 22:22:38
Eccentricity: 0.0054356
inclination: 98.5278°
perigee height: 578 km
apogee height: 654 km
right ascension of ascending node: 322.4010°
argument of perigee: 233.5863°
revolutions per day: 14.84219010
mean anomaly at epoch: 126.0330°
orbit number at epoch: 48712

The dashed part of the orbit path shows where the satellite is in the earth's shadow,  

DLR